ZIP16RN EGKK-LGKF

Flight info

Callsign ZIP16RN
Flight time N/A
Altitude 33000
Route SFD Y47 BENBO UL612 OGULO DCT OKASI DCT OKEKO DCT MOU DCT MADIV DCT MOKIP DCT TUFTA DCT KOGAS DCT MEDAM DCT NITAM DCT MOGBO DCT ELB DCT MEDAL DCT RAVAL DCT LUNAK DCT ELVIN DCT RIFFI DCT MALOG DCT EDOPA DCT PEVIR DCT DELER DCT AGNIS DCT CRN DCT ADREN DCT TOMGI DCT RUTOM UM601 LASKO
Aircraft B738/M-SDE2E3FGHIRWXY/LB1

Departure

Time N/A
Airport London Gatwick Airport (EGKK)

Arrival

Time 2026-04-25 15:47
Airport Kefallinia Airport (LGKF)
Time Latitude Longitude Altitude Speed Heading
2026-04-25 15:07 39.00481 17.05847 33059 ft 442 kts 111°
2026-04-25 15:07 38.99288 17.09475 33056 ft 440 kts 108°
2026-04-25 15:08 38.97345 17.16930 33054 ft 440 kts 104°
2026-04-25 15:08 38.95615 17.24414 33045 ft 440 kts 103°
2026-04-25 15:09 38.93877 17.31936 33045 ft 440 kts 104°
2026-04-25 15:09 38.91206 17.43202 33045 ft 440 kts 104°
2026-04-25 15:10 38.89403 17.50675 33042 ft 439 kts 104°
2026-04-25 15:11 38.86690 17.61837 33042 ft 439 kts 104°
2026-04-25 15:11 38.84860 17.69329 33042 ft 440 kts 104°
2026-04-25 15:12 38.82123 17.80489 33037 ft 439 kts 104°
2026-04-25 15:12 38.80593 17.86704 33037 ft 438 kts 104°
2026-04-25 15:13 38.77519 17.99136 33037 ft 437 kts 104°
2026-04-25 15:14 38.75675 18.06564 33035 ft 439 kts 104°
2026-04-25 15:14 38.73828 18.13982 33033 ft 438 kts 104°
2026-04-25 15:15 38.71979 18.21386 33034 ft 438 kts 104°
2026-04-25 15:15 38.70128 18.28747 33033 ft 438 kts 104°
2026-04-25 15:16 38.68247 18.36158 33032 ft 438 kts 104°
2026-04-25 15:16 38.65425 18.47226 33033 ft 438 kts 104°
2026-04-25 15:17 38.62604 18.58255 33033 ft 437 kts 104°
2026-04-25 15:18 38.60709 18.65642 33033 ft 437 kts 105°
2026-04-25 15:18 38.57864 18.76685 33032 ft 437 kts 105°
2026-04-25 15:19 38.56284 18.82796 33030 ft 436 kts 105°
2026-04-25 15:19 38.55014 18.87698 32742 ft 438 kts 104°
2026-04-25 15:19 38.54058 18.91384 32479 ft 437 kts 104°
2026-04-25 15:20 38.53102 18.95062 32220 ft 436 kts 105°
2026-04-25 15:20 38.52142 18.98753 31958 ft 437 kts 105°
2026-04-25 15:20 38.51185 19.02426 31699 ft 438 kts 105°
2026-04-25 15:20 38.50230 19.06078 31439 ft 439 kts 105°
2026-04-25 15:21 38.49266 19.09757 31179 ft 440 kts 105°
2026-04-25 15:21 38.48293 19.13466 30918 ft 442 kts 105°
2026-04-25 15:21 38.47316 19.17179 30656 ft 442 kts 104°
2026-04-25 15:21 38.46334 19.20905 30342 ft 442 kts 105°
2026-04-25 15:22 38.45360 19.24599 29577 ft 443 kts 105°
2026-04-25 15:22 38.44381 19.28306 28742 ft 444 kts 105°
2026-04-25 15:22 38.43395 19.32035 27858 ft 445 kts 105°
2026-04-25 15:22 38.42401 19.35786 26934 ft 447 kts 105°
2026-04-25 15:23 38.41416 19.39498 25984 ft 450 kts 105°
2026-04-25 15:23 38.40412 19.43280 25192 ft 447 kts 105°
2026-04-25 15:23 38.39424 19.46984 24716 ft 439 kts 105°
2026-04-25 15:23 38.38459 19.50596 24165 ft 433 kts 105°
2026-04-25 15:24 38.37487 19.54226 23591 ft 427 kts 105°
2026-04-25 15:24 38.36541 19.57762 23021 ft 422 kts 105°
2026-04-25 15:24 38.35600 19.61278 22450 ft 418 kts 105°
2026-04-25 15:24 38.34980 19.63591 22073 ft 415 kts 105°
2026-04-25 15:25 38.33760 19.68141 21331 ft 409 kts 106°
2026-04-25 15:25 38.32848 19.71537 20772 ft 405 kts 105°
2026-04-25 15:25 38.31936 19.74929 20202 ft 401 kts 105°
2026-04-25 15:25 38.31049 19.78223 19650 ft 397 kts 106°
2026-04-25 15:26 38.30155 19.81536 19095 ft 393 kts 106°
2026-04-25 15:26 38.29272 19.84804 18543 ft 389 kts 105°
2026-04-25 15:26 38.28394 19.88055 17992 ft 388 kts 105°
2026-04-25 15:26 38.27512 19.91324 17443 ft 402 kts 106°
2026-04-25 15:27 38.26597 19.94714 16851 ft 403 kts 106°
2026-04-25 15:27 38.25696 19.97985 16477 ft 394 kts 108°
2026-04-25 15:27 38.22081 20.03226 15717 ft 410 kts 151°
2026-04-25 15:28 38.19349 20.04224 15400 ft 414 kts 171°
2026-04-25 15:28 38.16468 20.03994 14610 ft 419 kts 192°
2026-04-25 15:28 38.13729 20.02802 13740 ft 423 kts 202°
2026-04-25 15:28 38.11043 20.01364 12912 ft 418 kts 202°
2026-04-25 15:29 38.08409 20.00048 12373 ft 397 kts 199°
2026-04-25 15:29 38.05833 19.99019 11851 ft 378 kts 192°
2026-04-25 15:29 38.03301 19.98606 11355 ft 360 kts 178°
2026-04-25 15:29 38.00904 19.98999 11020 ft 336 kts 158°
2026-04-25 15:30 37.99025 20.00493 10834 ft 306 kts 128°
2026-04-25 15:30 37.97991 20.02688 10740 ft 278 kts 105°
2026-04-25 15:30 37.97616 20.04967 10638 ft 255 kts 91°
2026-04-25 15:30 37.97641 20.07123 10536 ft 235 kts 80°
2026-04-25 15:31 37.97932 20.09098 10464 ft 231 kts 72°
2026-04-25 15:31 37.98469 20.11055 10346 ft 236 kts 66°
2026-04-25 15:31 37.98998 20.13021 10290 ft 236 kts 79°
2026-04-25 15:31 37.98814 20.15106 10285 ft 246 kts 112°
2026-04-25 15:32 37.97780 20.16842 10296 ft 254 kts 139°
2026-04-25 15:32 37.96229 20.17936 10302 ft 258 kts 158°
2026-04-25 15:32 37.94448 20.18326 10296 ft 263 kts 180°
2026-04-25 15:33 37.91208 20.16503 10292 ft 264 kts 235°
2026-04-25 15:33 37.90464 20.14421 10306 ft 262 kts 261°
2026-04-25 15:33 37.90364 20.12113 10307 ft 258 kts 281°
2026-04-25 15:33 37.90931 20.10030 10297 ft 251 kts 309°
2026-04-25 15:34 37.92175 20.08551 10308 ft 244 kts 333°
2026-04-25 15:34 37.93721 20.07720 10310 ft 240 kts 350°
2026-04-25 15:34 37.95355 20.07633 10297 ft 235 kts 15°
2026-04-25 15:34 37.96386 20.08114 10303 ft 236 kts 31°
2026-04-25 15:35 37.98898 20.11664 10256 ft 237 kts 63°
2026-04-25 15:35 37.99530 20.13568 10184 ft 237 kts 68°
2026-04-25 15:35 38.00102 20.15543 10041 ft 239 kts 68°
2026-04-25 15:36 38.01294 20.19435 9470 ft 237 kts 66°
2026-04-25 15:36 38.01912 20.21356 9177 ft 235 kts 66°
2026-04-25 15:36 38.02530 20.23269 8880 ft 233 kts 66°
2026-04-25 15:37 38.03141 20.25164 8595 ft 231 kts 66°
2026-04-25 15:37 38.03546 20.27131 8286 ft 234 kts 89°
2026-04-25 15:37 38.03083 20.29090 8013 ft 239 kts 123°
2026-04-25 15:37 38.01819 20.30473 7732 ft 245 kts 145°
2026-04-25 15:38 38.00395 20.31665 7400 ft 244 kts 139°
2026-04-25 15:38 37.99103 20.33024 7107 ft 242 kts 133°
2026-04-25 15:38 37.97921 20.34530 6815 ft 239 kts 128°
2026-04-25 15:38 37.96849 20.36142 6530 ft 237 kts 124°
2026-04-25 15:39 37.95898 20.37814 6228 ft 235 kts 119°
2026-04-25 15:39 37.95071 20.39605 5938 ft 233 kts 114°
2026-04-25 15:39 37.94394 20.41453 5671 ft 230 kts 109°
2026-04-25 15:39 37.93845 20.43320 5392 ft 229 kts 104°
2026-04-25 15:40 37.93419 20.45264 5110 ft 227 kts 99°
2026-04-25 15:40 37.93219 20.46565 4936 ft 226 kts 96°
2026-04-25 15:40 37.92989 20.49194 4566 ft 225 kts 90°
2026-04-25 15:40 37.92964 20.51154 4287 ft 221 kts 85°
2026-04-25 15:41 37.93074 20.53037 4072 ft 212 kts 80°
2026-04-25 15:41 37.93290 20.54826 3963 ft 201 kts 76°
2026-04-25 15:41 37.93596 20.56545 3831 ft 201 kts 72°
2026-04-25 15:41 37.94017 20.58244 3648 ft 201 kts 67°
2026-04-25 15:42 37.94536 20.59893 3428 ft 201 kts 63°
2026-04-25 15:42 37.95148 20.61455 3237 ft 194 kts 54°
2026-04-25 15:42 37.96101 20.62527 3065 ft 181 kts 17°
2026-04-25 15:42 37.97333 20.62554 2931 ft 179 kts 344°
2026-04-25 15:43 37.98466 20.61867 2791 ft 183 kts 327°
2026-04-25 15:43 37.99495 20.60934 2611 ft 182 kts 325°
2026-04-25 15:43 38.00516 20.60009 2423 ft 176 kts 326°
2026-04-25 15:43 38.01507 20.59135 2249 ft 168 kts 326°
2026-04-25 15:44 38.02435 20.58318 2133 ft 156 kts 326°
2026-04-25 15:44 38.03348 20.57545 1994 ft 158 kts 328°
2026-04-25 15:44 38.04237 20.56800 1784 ft 147 kts 327°
2026-04-25 15:44 38.05085 20.56047 1554 ft 149 kts 325°
2026-04-25 15:45 38.05923 20.55295 1347 ft 148 kts 325°
2026-04-25 15:45 38.06759 20.54545 1154 ft 147 kts 324°
2026-04-25 15:45 38.07599 20.53787 962 ft 147 kts 324°
2026-04-25 15:45 38.08165 20.53287 845 ft 148 kts 325°
2026-04-25 15:46 38.09308 20.52324 591 ft 149 kts 325°
2026-04-25 15:46 38.10168 20.51599 377 ft 150 kts 326°
2026-04-25 15:46 38.11044 20.50861 152 ft 150 kts 324°
2026-04-25 15:46 38.11887 20.50143 70 ft 132 kts 325°
2026-04-25 15:47 38.12477 20.49644 60 ft 71 kts 325°
2026-04-25 15:47 38.12750 20.49419 52 ft 34 kts 326°
2026-04-25 15:47 38.12868 20.49345 49 ft 7 kts
2026-04-25 15:47 38.12862 20.49304 47 ft 12 kts 165°
2026-04-25 15:48 38.12773 20.49379 50 ft 22 kts 144°
2026-04-25 15:48 38.12602 20.49534 55 ft 36 kts 145°
2026-04-25 15:48 38.12388 20.49719 61 ft 37 kts 145°
2026-04-25 15:48 38.12130 20.49937 68 ft 49 kts 146°
2026-04-25 15:49 38.11894 20.50141 70 ft 16 kts 142°
2026-04-25 15:49 38.11883 20.50211 72 ft 7 kts 76°
2026-04-25 15:49 38.11898 20.50267 75 ft 6 kts 58°
2026-04-25 15:49 38.11929 20.50325 78 ft 6 kts 56°
2026-04-25 15:50 38.11947 20.50360 79 ft 0 kts 55°
2026-04-25 15:50 38.11950 20.50365 79 ft 0 kts 55°
2026-04-25 15:50 38.11950 20.50366 79 ft 0 kts 55°